Skip Page Navigation
NASA JPL Caltech
NASA Logo - Jet Propulsion Laboratory + View the NASA Portal
+ Near-Earth Object (NEO) Program
Search JPL
JPL Home Earth Solar System Stars & Galaxies Technology
JPL Solar System Dynamics
BODIES ORBITS EPHEMERIDES TOOLS PHYSICAL DATA DISCOVERY FAQ SITE MAP
JPL Small-Body Database Browser
Search: [ help ]  
617 Patroclus (1906 VY)
Classification: Jupiter Trojan          SPK-ID: 2000617
Ephemeris | Orbit Diagram | Orbital Elements | Physical Parameters | Discovery Circumstances ]

[ hide orbit diagram ]
Orbit Diagram
Note: Make sure you have Java enabled on your browser to see the applet. This applet is provided as a 3D orbit visualization tool. The applet was implemented using 2-body methods, and hence should not be used for determining accurate long-term trajectories (over several years or decades) or planetary encounter circumstances. For accurate long-term ephemerides, please instead use our Horizons system.
Orbit Viewer

Additional Notes: the orbits shown in the applet are color coded. The planets are white lines, and the asteroid/comet is a blue line. The bright white line indicates the portion of the orbit that is above the ecliptic plane, and the darker portion is below the ecliptic plane. Likewise for the asteroid/comet orbit, the light blue indicates the portion above the ecliptic plane, and the dark blue the portion below the ecliptic plane.

Orbit Viewer applet originally written and kindly provided by Osamu Ajiki (AstroArts), and further modified by Ron Baalke (JPL).


Orbital Elements at Epoch 2456400.5 (2013-Apr-18.0) TDB
Reference: JPL 27 (heliocentric ecliptic J2000)
 Element Value Uncertainty (1-sigma)   Units 
e .1397765671404218 9.3513e-08  
a 5.216835354048023 9.6545e-08 AU
q 4.487644016922403 5.0794e-07 AU
i 22.05282940918726 9.8503e-06 deg
node 44.36605358379401 2.4448e-05 deg
peri 308.2161362475674 3.9214e-05 deg
M 21.16163980105694 3.4937e-05 deg
tp 2456144.667367607979
(2012-Aug-05.16736761)
0.00041964 JED
period 4352.202784234502
11.92
0.00012082
3.308e-07
d
yr
n .08271673399595958 2.2962e-09 deg/d
Q 5.946026691173643 1.1004e-07 AU
  Orbit Determination Parameters
   # obs. used (total)      940  
   data-arc span      38739 days (106.06 yr)  
   first obs. used      1906-10-21  
   last obs. used      2012-11-12  
   planetary ephem.      DE405  
   SB-pert. ephem.      SB405-CPV-2  
   condition code      0  
   fit RMS      .62287  
   data source      ORB  
   producer      Otto Matic  
   solution date      2013-Mar-29 15:04:09  

Additional Information
 Earth MOID = 3.53435 AU 
 T_jup = 2.835 
[ show covariance matrix ]

Ephemeris | Orbit Diagram | Orbital Elements | Physical Parameters | Discovery Circumstances ]

Physical Parameter Table
Parameter Symbol Value Units Sigma Reference Notes
absolute magnitude H 8.19 mag n/a IRAS-A-FPA-3-RDR-IMPS-V6.0 IRAS observations used: 8
diameter diameter 140.92 km 4.7 IRAS-A-FPA-3-RDR-IMPS-V6.0 IRAS observations used: 8
rotation period rot_per 102.8 h n/a Asteroid Lightcurve DataBase (Rev. 2013-May-01) Published Reference List:
[Behrend, R. (2005) Observatoire de Geneve web site, http://obswww.unige.ch/~behrend/page_cou.html]
[Marchis, F.; Hestroffer, D.; Descamps, P.; Berthier, J.; et al. (2006) Nature 439, 565-567.]
[Behrend, R. (2006) Observatoire de Geneve web site, http://obswww.unige.ch/~behrend/page_cou.html]
[Behrend, R. (2008) Observatoire de Geneve web site, http://obswww.unige.ch/~behrend/page_cou.html]
[Mueller, M.; Marchis, F.; Emery, J.P.; Harris, A.W. (DLR); et al. (2010) Icarus 205, 505-515.]
[Oey, J. (2012) Minor Planet Bul. 39, 106-107.]
geometric albedo albedo 0.0471   0.003 IRAS-A-FPA-3-RDR-IMPS-V6.0 IRAS observations used: 8
B-V BV .677 mag .013 EAR-A-5-DDR-UBV-MEAN-VALUES-V1.1 #obs=5; phase (min.=2.24, mean=6.14, max.=8.61) deg.
U-B UB .215 mag .045 EAR-A-5-DDR-UBV-MEAN-VALUES-V1.1 #obs=7; phase (min.=2.24, mean=6.52, max.=8.61) deg.
Tholen spectral type spec_T P   n/a EAR-A-5-DDR-TAXONOMY-V4.0 used 7 color indices; used ground-based radiometric albedo

617 Patroclus (1906 VY)          Discovered 1906-Oct-17 by Kopff, A. at Heidelberg (024)
Reference: DISCOVERY.DBLast Updated: 2003-08-29

Alternate Designations
 1906 VY = 1941 XC = 1962 NB 
Ephemeris | Orbit Diagram | Orbital Elements | Physical Parameters | Discovery Circumstances ]
ABOUT SSD CREDITS/AWARDS PRIVACY/COPYRIGHT GLOSSARY LINKS
FirstGov 2013-Jun-19 01:17 UT
(server date/time)  
NASA Home Page
Site Manager:   Donald K. Yeomans
Webmaster  Alan B. Chamberlin